[[{"header":{"parameterUnit":"m.s-1","parameterCategory":1,"la1":30.2991,"la2":30.254,"lo1":-89.0895,"lo2":-89.0444,"dy":0.0017,"dx":0.0017,"nx":28,"ny":28,"refTime":"2024-09-25T09:00:00:Z","depth":0,"parameterNumber":2,"parameterNumberName":"U-component_of_WINDS"},"data":[0,0,0,0,0,0,0,0,0,0,0,0,0,0,0,0,0,0,0,0,0,0,0,0,0,0,0,0,0,0,0,0,0,0,0,0,0,0,0,0,0,0,0,0,0,0,0,0,0,0,0,0,0,0,0,0,0,0,5.0199,5.0201,0,5.038,5.0382,5.0384,5.0344,5.034,5.0337,5.0334,5.0521,5.0529,5.0537,0,0,0,0,0,0,0,0,0,0,0,0,0,4.982,4.9827,5.0199,5.0201,5.0203,5.038,5.0382,5.0384,5.0344,5.034,5.0336,5.0332,5.0518,5.0528,5.0537,0,0,0,0,0,0,0,0,0,0,0,0,0,4.9991,4.983,5.0199,5.0205,5.0207,5.0379,5.0382,5.0385,5.0345,5.034,5.0335,5.033,5.0515,5.0527,5.0539,5.0717,0,0,5.0576,5.0581,0,0,0,0,0,0,0,0,4.9982,5.0005,5.0201,5.0205,5.0207,5.0334,5.0317,5.0496,5.0347,5.0293,5.0334,5.0328,5.0463,5.0479,5.0524,5.0725,5.0733,5.0577,5.0585,5.059,5.0593,0,0,0,0,0,0,0,4.997,4.9997,5.0271,5.0204,5.0208,5.0199,5.0217,5.0351,5.0404,5.0297,5.0295,5.0316,5.0463,5.0513,5.0528,5.0736,5.0577,5.0588,5.0595,5.06,5.1092,5.1097,0,0,0,0,0,0,4.9955,4.9988,5.0265,5.0276,5.008,5.021,5.0231,5.0299,5.0403,5.0414,5.0321,5.0314,5.0494,5.0514,5.0535,5.0749,5.059,5.0601,5.0608,5.1086,5.1093,5.1099,0,0,0,0,0,0,4.9947,4.998,5.0257,5.0131,5.0166,5.0222,5.0298,5.0305,5.0354,5.0421,5.043,5.0361,5.0491,5.0517,5.0671,5.0755,5.0607,5.0618,5.1079,5.1088,5.1096,5.118,0,0,0,0,0,0,4.9937,4.9978,5.0046,5.0133,5.0173,5.0391,5.0304,5.0312,5.0375,5.0368,5.0461,5.0471,5.0489,5.0653,5.0684,5.0769,5.0627,5.1072,5.1083,5.1093,5.117,5.1191,5.1208,0,0,0,0,0,4.9923,5.0063,5.0049,5.0083,5.0259,5.0396,5.0419,5.0436,5.0382,5.0451,5.0493,5.0468,5.0741,5.067,5.0703,5.0794,5.1067,5.108,5.1093,5.1162,5.1187,5.1208,0,0,0,0,0,0,4.9984,5.0074,5.006,5.0232,5.0307,5.0389,5.0476,5.0462,5.0553,5.0543,5.0561,5.0582,5.0739,5.0782,5.07,5.0971,5.0896,5.0917,5.0938,5.0962,5.098,5.0967,5.0638,0,0,0,0,0,5.0017,5.0121,5.0194,5.0339,5.0377,5.042,5.0481,5.0487,5.0565,5.0597,5.0651,5.0728,5.0831,5.0899,5.0998,5.1176,5.1196,5.1256,5.1274,5.129,5.1307,5.1404,5.1432,5.1142,5.1141,5.1141,0,0,5.0088,5.015,5.0214,5.0353,5.0411,5.0518,5.0447,5.0564,5.0643,5.0615,5.0763,5.0806,5.0893,5.106,5.1136,5.1101,5.1391,5.1306,5.1318,5.1327,5.142,5.1448,5.1472,5.115,5.1149,5.1147,0,0,5.027,5.0327,5.0454,5.0514,5.0603,5.0631,5.0661,5.0746,5.0773,5.0922,5.0903,5.0998,5.1176,5.1238,5.1294,5.15,5.148,5.1531,5.163,5.1725,5.1748,5.1768,5.1842,5.1868,5.1548,5.1549,5.1549,0,5.0346,5.0506,5.0521,5.0639,5.0701,5.0679,5.0807,5.0865,5.0982,5.1026,5.0984,5.1206,5.1263,5.1444,5.1494,5.154,5.1575,5.1521,5.1744,5.1764,5.1783,5.1853,5.1881,5.1554,5.1554,5.1553,5.1553,0,5.0595,5.0707,5.0798,5.0911,5.0983,5.1106,5.1139,5.1211,5.1211,5.1243,5.1395,5.1463,5.1575,5.1619,5.1621,5.1801,5.1776,5.1739,5.1664,5.1816,5.1882,5.1909,5.1562,5.156,5.1559,5.1557,0,0,5.0822,5.094,5.0974,5.1025,5.1121,5.1208,5.133,5.1439,5.1499,5.1581,5.1683,5.1834,5.18,5.1863,5.1872,5.1955,5.2113,5.1908,5.191,5.1943,5.2316,5.2343,5.2373,5.2101,5.2106,5.211,5.2308,0,5.1013,5.1227,5.1243,5.1436,5.1539,5.152,5.1626,5.1697,5.1731,5.1824,5.1861,5.1967,5.1915,5.1952,5.2034,5.2077,5.2188,5.2063,5.2197,5.2201,5.2175,5.2408,5.2437,5.2621,5.2334,5.2339,5.2342,0,5.1264,5.1352,5.1556,5.1637,5.1681,5.1776,5.1877,5.1966,5.2046,5.2064,5.2134,5.2132,5.2257,5.2177,5.2351,5.2265,5.2321,5.235,5.2358,5.2371,5.2281,5.2427,5.268,5.2707,5.2383,5.2379,5.2376,0,5.1409,5.1578,5.1722,5.1766,5.1865,5.1932,5.1976,5.2051,5.2116,5.2204,5.2246,5.2348,5.2404,5.2483,5.2508,5.2448,5.268,5.2603,5.2699,5.2699,5.2749,5.2745,5.3014,5.2786,5.2785,5.2785,5.2784,0,5.162,5.1745,5.1788,5.1876,5.2015,5.2033,5.2171,5.2212,5.2279,5.2375,5.2365,5.2455,5.2482,5.2578,5.2598,5.2738,5.2764,5.2783,5.2786,5.2783,5.2781,5.282,5.2808,5.2792,5.279,5.2789,5.2788,0,5.1805,5.1839,5.1994,5.2074,5.2097,5.2197,5.2266,5.2351,5.2382,5.2504,5.2534,5.2584,5.2695,5.2728,5.2863,5.2876,5.3041,5.3033,5.3013,5.3013,5.3108,5.3098,5.3411,5.3452,5.3197,5.3199,5.3201,0,5.1938,5.2034,5.2124,5.2187,5.2234,5.2336,5.2401,5.2423,5.2491,5.2589,5.2663,5.2773,5.2862,5.3041,5.309,5.3193,5.3187,5.329,5.3203,5.3197,5.3189,5.3182,5.3192,5.3306,5.3309,5.3311,5.3313,0,5.217,5.2182,5.2275,5.2375,5.2453,5.2533,5.261,5.2662,5.2695,5.2772,5.2885,5.2955,5.3091,5.3201,5.3305,5.3351,5.3338,5.3339,5.3367,5.3365,5.3349,5.3359,5.3058,5.3332,5.333,5.3329,5.3328,5.3327,5.2333,5.2417,5.2493,5.2598,5.2658,5.273,5.2813,5.2855,5.295,5.3062,5.3069,5.3192,5.327,5.3408,5.346,5.3556,5.3527,5.3567,5.3577,5.3587,5.3594,5.3334,5.3576,5.3575,5.3575,5.3574,5.3574,0,5.2564,5.2612,5.2708,5.2815,5.2898,5.2877,5.2961,5.3032,5.314,5.3213,5.33,5.3431,5.3537,5.3593,5.3699,5.3766,5.3762,5.3793,5.3788,5.3799,5.3615,5.358,5.3794,5.3794,5.3794,5.3793,5.3793,5.3793,5.2694,5.2835,5.2855,5.3025,5.3073,5.3192,5.3242,5.3308,5.3366,5.3512,5.36,5.3636,5.3702,5.3813,5.3909,5.3923,5.3962,5.3996,5.4007,5.3834,5.3812,5.379,5.3758,5.4005,5.4005,5.4182,5.4184,5.4185]},{"header":{"parameterUnit":"m.s-1","parameterCategory":1,"la1":30.2991,"la2":30.254,"lo1":-89.0895,"lo2":-89.0444,"dy":0.0017,"dx":0.0017,"nx":28,"ny":28,"refTime":"2024-09-25T09:00:00:Z","depth":0,"parameterNumber":3,"parameterNumberName":"V-component_of_WINDS"},"data":[0,0,0,0,0,0,0,0,0,0,0,0,0,0,0,0,0,0,0,0,0,0,0,0,0,0,0,0,0,0,0,0,0,0,0,0,0,0,0,0,0,0,0,0,0,0,0,0,0,0,0,0,0,0,0,0,0,0,-2.4457,-2.4459,0,-2.4587,-2.4589,-2.459,-2.4567,-2.4565,-2.4563,-2.4561,-2.4695,-2.4701,-2.4706,0,0,0,0,0,0,0,0,0,0,0,0,0,-2.4191,-2.4196,-2.4457,-2.4459,-2.446,-2.4587,-2.4589,-2.459,-2.4568,-2.4565,-2.4562,-2.456,-2.4693,-2.47,-2.4707,0,0,0,0,0,0,0,0,0,0,0,0,0,-2.4312,-2.4198,-2.4457,-2.4464,-2.4466,-2.4587,-2.4589,-2.4591,-2.4568,-2.4565,-2.4562,-2.4558,-2.4691,-2.4699,-2.4708,-2.4829,0,0,-2.4734,-2.4737,0,0,0,0,0,0,0,0,-2.4306,-2.4322,-2.4462,-2.4464,-2.4467,-2.4558,-2.4544,-2.4671,-2.4569,-2.453,-2.4561,-2.4557,-2.4652,-2.4664,-2.4696,-2.4835,-2.4841,-2.4735,-2.474,-2.4743,-2.4746,0,0,0,0,0,0,0,-2.4297,-2.4316,-2.4509,-2.4464,-2.4467,-2.4462,-2.4475,-2.4568,-2.4609,-2.4533,-2.4532,-2.4547,-2.4653,-2.4687,-2.4699,-2.4843,-2.4734,-2.4742,-2.4747,-2.475,-2.5089,-2.5092,0,0,0,0,0,0,-2.4286,-2.431,-2.4504,-2.4512,-2.4376,-2.4469,-2.4484,-2.4532,-2.4608,-2.4616,-2.455,-2.4546,-2.4674,-2.4689,-2.4703,-2.485,-2.4743,-2.4751,-2.4756,-2.5085,-2.509,-2.5094,0,0,0,0,0,0,-2.4281,-2.4304,-2.4499,-2.4411,-2.4435,-2.4477,-2.4531,-2.4536,-2.4571,-2.462,-2.4628,-2.4578,-2.4672,-2.4691,-2.4798,-2.4855,-2.4755,-2.4763,-2.508,-2.5086,-2.5092,-2.5146,0,0,0,0,0,0,-2.4273,-2.4302,-2.4348,-2.4412,-2.444,-2.4592,-2.4535,-2.4541,-2.4585,-2.4581,-2.4648,-2.4656,-2.4671,-2.4785,-2.4806,-2.4865,-2.477,-2.5075,-2.5083,-2.509,-2.5139,-2.5153,-2.5164,0,0,0,0,0,-2.4264,-2.4359,-2.4351,-2.4374,-2.4499,-2.4595,-2.4611,-2.4626,-2.459,-2.4637,-2.4669,-2.4654,-2.4845,-2.4796,-2.482,-2.4882,-2.5072,-2.5081,-2.5089,-2.5133,-2.515,-2.5164,0,0,0,0,0,0,-2.4301,-2.4367,-2.4359,-2.4477,-2.4531,-2.4591,-2.4651,-2.4643,-2.4708,-2.4701,-2.4717,-2.4732,-2.484,-2.4872,-2.4816,-2.5003,-2.4953,-2.4967,-2.4979,-2.4995,-2.5007,-2.4998,-2.4777,0,0,0,0,0,-2.4323,-2.4395,-2.4449,-2.4548,-2.4575,-2.4608,-2.4651,-2.4658,-2.4714,-2.4736,-2.4776,-2.4831,-2.4903,-2.4951,-2.502,-2.5143,-2.5158,-2.5197,-2.521,-2.522,-2.5232,-2.53,-2.5318,-2.5122,-2.5122,-2.5122,0,0,-2.4369,-2.4414,-2.4459,-2.4557,-2.4599,-2.4674,-2.4628,-2.4709,-2.4765,-2.4749,-2.4852,-2.4883,-2.4945,-2.5061,-2.5114,-2.509,-2.5289,-2.5231,-2.5239,-2.5245,-2.5311,-2.5329,-2.5345,-2.5128,-2.5127,-2.5126,0,0,-2.4492,-2.4533,-2.462,-2.4663,-2.4727,-2.4748,-2.4769,-2.4831,-2.4851,-2.4954,-2.4944,-2.5011,-2.5135,-2.518,-2.5219,-2.5359,-2.5348,-2.5381,-2.5447,-2.5513,-2.5528,-2.5542,-2.5592,-2.561,-2.5393,-2.5393,-2.5393,0,-2.4542,-2.4653,-2.4666,-2.4749,-2.4792,-2.478,-2.4869,-2.491,-2.4994,-2.5024,-2.4997,-2.5152,-2.5194,-2.532,-2.5354,-2.5386,-2.541,-2.5374,-2.5525,-2.5539,-2.5552,-2.56,-2.5619,-2.5396,-2.5396,-2.5396,-2.5395,0,-2.4712,-2.4789,-2.4852,-2.4933,-2.4983,-2.5068,-2.5094,-2.5144,-2.5146,-2.517,-2.5276,-2.5325,-2.5404,-2.5435,-2.5438,-2.5561,-2.5545,-2.5521,-2.5472,-2.5574,-2.562,-2.5638,-2.5402,-2.54,-2.5399,-2.5398,0,0,-2.4863,-2.4948,-2.4971,-2.5008,-2.5077,-2.5138,-2.5222,-2.5299,-2.5342,-2.54,-2.5471,-2.5577,-2.5555,-2.5599,-2.5607,-2.5665,-2.5773,-2.5634,-2.5636,-2.5659,-2.5913,-2.5931,-2.5952,-2.5765,-2.5769,-2.5772,-2.5907,0,-2.4992,-2.5141,-2.5155,-2.5289,-2.5361,-2.535,-2.5424,-2.5475,-2.55,-2.5565,-2.5593,-2.5667,-2.5633,-2.5659,-2.5716,-2.5748,-2.5824,-2.5738,-2.5833,-2.5836,-2.5818,-2.5975,-2.5995,-2.6121,-2.5925,-2.5928,-2.593,0,-2.5164,-2.5226,-2.5367,-2.5426,-2.5457,-2.5523,-2.5595,-2.5657,-2.5714,-2.5728,-2.5778,-2.5778,-2.5866,-2.5812,-2.5933,-2.5874,-2.5914,-2.5935,-2.594,-2.5951,-2.589,-2.5991,-2.6161,-2.618,-2.5959,-2.5956,-2.5954,0,-2.526,-2.538,-2.5479,-2.5511,-2.5582,-2.5629,-2.5661,-2.5715,-2.576,-2.5823,-2.5852,-2.5925,-2.5964,-2.602,-2.604,-2.5999,-2.616,-2.6108,-2.6175,-2.6175,-2.621,-2.6208,-2.639,-2.6234,-2.6234,-2.6234,-2.6233,0,-2.5404,-2.5491,-2.5524,-2.5585,-2.5682,-2.5697,-2.5793,-2.5822,-2.587,-2.5938,-2.5933,-2.5996,-2.6018,-2.6085,-2.6101,-2.6199,-2.6217,-2.6231,-2.6235,-2.6232,-2.6231,-2.6259,-2.6251,-2.6239,-2.6238,-2.6237,-2.6236,0,-2.5529,-2.5554,-2.5663,-2.5721,-2.5738,-2.5807,-2.5857,-2.5917,-2.594,-2.6025,-2.6046,-2.6083,-2.6162,-2.6187,-2.6282,-2.6293,-2.6408,-2.6403,-2.6388,-2.6389,-2.6455,-2.6448,-2.6663,-2.6692,-2.6516,-2.6517,-2.6519,0,-2.562,-2.5687,-2.5752,-2.5796,-2.583,-2.5902,-2.5948,-2.5965,-2.6013,-2.6083,-2.6135,-2.6212,-2.6276,-2.6402,-2.6438,-2.6511,-2.6508,-2.6578,-2.6519,-2.6515,-2.651,-2.6506,-2.6513,-2.6589,-2.6591,-2.6593,-2.6594,0,-2.5779,-2.5788,-2.5854,-2.5925,-2.598,-2.6036,-2.6091,-2.6128,-2.6153,-2.6207,-2.6288,-2.6337,-2.6433,-2.6511,-2.6585,-2.6618,-2.6611,-2.6612,-2.6631,-2.663,-2.6619,-2.6627,-2.642,-2.6607,-2.6606,-2.6605,-2.6604,-2.6604,-2.589,-2.5949,-2.6004,-2.6078,-2.612,-2.6172,-2.623,-2.6261,-2.6328,-2.6408,-2.6413,-2.65,-2.6556,-2.6654,-2.6691,-2.676,-2.674,-2.6768,-2.6775,-2.6782,-2.6788,-2.6608,-2.6773,-2.6773,-2.6773,-2.6772,-2.6772,0,-2.6049,-2.6084,-2.6152,-2.6228,-2.6286,-2.6273,-2.6333,-2.6383,-2.6459,-2.6511,-2.6573,-2.6665,-2.674,-2.6782,-2.6857,-2.6904,-2.6902,-2.6923,-2.692,-2.6928,-2.6801,-2.6777,-2.6923,-2.6923,-2.6923,-2.6923,-2.6923,-2.6923,-2.6139,-2.6238,-2.6253,-2.6373,-2.6407,-2.6491,-2.6527,-2.6574,-2.6616,-2.6719,-2.6781,-2.6807,-2.6855,-2.6933,-2.7002,-2.7012,-2.704,-2.7063,-2.7071,-2.6952,-2.6937,-2.6922,-2.69,-2.7069,-2.7069,-2.7193,-2.7194,-2.7195]}]]